Stations météo

réclame
Mon MeteoGroup
St-Sauveur, France (7300): Température de l'air & dewpoint: 22.02.2020 20:00:00 - 28.02.2020 20:00:00 (CET)St-Sauveur, France (7300): Vitesse du vent & gusts: 22.02.2020 20:00:00 - 28.02.2020 20:00:00 (CET)St-Sauveur, France (7300): Direction du vent: 22.02.2020 20:00:00 - 28.02.2020 20:00:00 (CET)St-Sauveur, France (7300): reduced air pressure: 22.02.2020 20:00:00 - 28.02.2020 20:00:00 (CET)St-Sauveur, France (7300): visibility: 22.02.2020 20:00:00 - 28.02.2020 20:00:00 (CET)St-Sauveur, France (7300): Quantités de précipitations: 22.02.2020 20:00:00 - 28.02.2020 20:00:00 (CET)
Date & Time tt [°C] td [°C] ff [km/h] ff [knt] fx [km/h] fx [knt] dd ppp [hPa] vv [km] rr [mm]
28.02.2020 20:00:00 11,2 10,4 40 21 51 28 SSW 1010,4 - 0,0
28.02.2020 19:00:00 11,2 10,6 30 16 46 25 SSW 1011,1 - 0,0
28.02.2020 18:00:00 11,6 11,0 30 16 49 26 SW 1011,8 - 0,0
28.02.2020 17:00:00 11,9 11,3 29 16 49 26 SW 1012,4 - 0,0
28.02.2020 16:00:00 11,9 11,3 29 16 47 25 SW 1012,8 - 1,4
28.02.2020 15:00:00 12,2 11,1 27 14 43 23 SW 1013,6 - 0,0
28.02.2020 14:00:00 13,2 11,3 27 15 46 25 SW 1014,5 - 0,0
28.02.2020 13:00:00 12,9 11,5 26 14 42 23 SW 1015,6 6 0,0
28.02.2020 12:00:00 12,7 11,8 21 11 36 20 SW 1015,8 - 0,0
28.02.2020 11:00:00 12,1 11,6 16 9 35 19 SW 1015,9 - 0,0
28.02.2020 10:00:00 11,8 11,5 23 13 36 19 SW 1015,4 6 0,0
28.02.2020 09:00:00 11,5 11,3 16 9 35 19 SW 1015,7 - 0,2
28.02.2020 08:00:00 9,8 9,5 27 14 48 26 S 1016,2 - 0,4
28.02.2020 07:00:00 9,1 8,8 28 15 43 23 SSE 1016,7 - 0,2
28.02.2020 06:00:00 8,6 8,0 22 12 39 21 S 1017,4 - 1,2
28.02.2020 05:00:00 8,9 7,2 20 11 29 16 S 1017,8 - 0,4
28.02.2020 04:00:00 9,3 6,4 16 8 24 13 S 1018,1 - 0,0
28.02.2020 03:00:00 8,7 5,4 18 10 24 13 SSW 1018,7 - 0,0
28.02.2020 02:00:00 7,7 5,2 14 7 21 11 SW 1019,0 - 0,0
28.02.2020 01:00:00 7,4 5,2 11 6 17 9 SW 1019,2 15 0,0
28.02.2020 00:00:00 6,4 3,5 3 2 7 4 W 1019,5 - 0,0
27.02.2020 23:00:00 7,2 4,5 3 2 9 5 NNW 1019,3 - 0,0
27.02.2020 22:00:00 6,6 3,6 8 4 13 7 NW 1019,4 20 0,0
27.02.2020 21:00:00 6,5 2,8 10 6 18 10 NW 1018,5 - 0,0
27.02.2020 20:00:00 8,0 3,5 13 7 24 13 NW 1017,7 - 0,0
27.02.2020 19:00:00 8,9 3,7 16 9 29 16 NNW 1016,5 20 0,0
27.02.2020 18:00:00 9,9 3,8 21 11 46 25 NW 1015,2 - 0,0
27.02.2020 17:00:00 10,8 4,9 26 14 50 27 NNW 1013,8 - 0,0
27.02.2020 16:00:00 11,2 5,1 27 15 64 34 NW 1012,5 - 0,0
27.02.2020 15:00:00 11,0 6,5 29 15 69 37 NW 1011,0 - 0,0
27.02.2020 14:00:00 11,4 6,5 38 21 77 42 NW 1009,7 - 0,0
27.02.2020 13:00:00 11,6 7,3 39 21 86 46 NW 1008,1 6 0,0
27.02.2020 12:00:00 11,9 8,7 42 23 81 44 NW 1005,9 - 0,0
27.02.2020 11:00:00 12,5 11,2 36 20 82 45 WNW 1004,2 - 0,0
27.02.2020 10:00:00 12,0 11,4 31 17 74 40 W 1003,1 6 0,2
27.02.2020 09:00:00 11,8 11,5 30 16 68 37 W 1002,4 - 0,2
27.02.2020 08:00:00 11,7 11,4 29 16 63 34 W 1002,0 - 0,2
27.02.2020 07:00:00 11,7 11,4 31 17 67 36 W 1002,2 - 0,4
27.02.2020 06:00:00 11,4 11,1 29 16 64 35 W 1002,3 - 0,6
27.02.2020 05:00:00 10,9 10,6 29 16 57 31 SW 1003,1 - 0,4
27.02.2020 04:00:00 10,7 10,4 35 19 63 34 SW 1005,1 6 1,6
27.02.2020 03:00:00 9,7 9,2 44 24 58 32 SSW 1007,8 - 1,6
27.02.2020 02:00:00 9,3 8,7 38 20 50 27 SSW 1010,0 - 1,2
27.02.2020 01:00:00 9,0 7,6 31 17 50 27 SW 1011,9 10 0,6
27.02.2020 00:00:00 9,3 7,1 21 11 34 18 SW 1013,5 - 0,2
26.02.2020 23:00:00 8,9 6,3 16 9 29 16 SW 1014,9 - 0,0
26.02.2020 22:00:00 8,8 5,0 15 8 30 16 WSW 1015,7 15 0,0
26.02.2020 21:00:00 8,8 4,4 13 7 30 16 W 1016,3 - 0,0
26.02.2020 20:00:00 8,7 4,7 14 8 31 17 WSW 1016,8 - 0,0
26.02.2020 19:00:00 8,5 3,1 19 11 39 21 WNW 1016,9 - 0,0
26.02.2020 18:00:00 8,9 3,7 19 11 42 23 WNW 1016,9 - 0,0
26.02.2020 17:00:00 9,5 2,6 22 12 46 25 WNW 1017,0 - 0,0
26.02.2020 16:00:00 9,6 2,2 22 12 53 28 WNW 1017,1 6 0,0
26.02.2020 15:00:00 10,0 2,8 27 15 52 28 NW 1017,1 - 0,0
26.02.2020 14:00:00 9,6 2,0 24 13 53 28 WNW 1017,4 - 0,0
26.02.2020 13:00:00 8,6 3,8 22 12 51 28 NW 1017,6 6 0,0
26.02.2020 12:00:00 9,6 1,5 30 16 57 31 NW 1017,5 - 0,0
26.02.2020 11:00:00 9,3 2,4 31 17 69 37 NW 1016,8 - 0,0
26.02.2020 10:00:00 8,6 2,4 31 17 64 35 NW 1016,3 10 0,0
26.02.2020 09:00:00 7,5 2,2 37 20 74 40 NW 1015,4 - 0,0
26.02.2020 08:00:00 7,4 2,3 36 19 72 39 NW 1014,3 - 0,0
26.02.2020 07:00:00 6,5 1,8 44 24 76 41 NW 1013,7 10 0,0
26.02.2020 06:00:00 6,1 2,9 36 19 90 49 NW 1013,3 - 1,0
26.02.2020 05:00:00 6,7 3,3 34 18 70 38 NW 1012,6 - 0,2
26.02.2020 04:00:00 6,2 4,0 32 18 89 48 WNW 1012,5 - 0,4
26.02.2020 03:00:00 6,3 3,6 38 21 93 50 WNW 1012,4 - 0,4
26.02.2020 02:00:00 6,7 4,0 34 19 80 43 WNW 1012,2 - 0,2
26.02.2020 01:00:00 7,0 4,8 36 19 88 48 WNW 1012,1 - 0,6
26.02.2020 00:00:00 7,2 4,8 41 22 86 47 WNW 1012,5 - 0,8
25.02.2020 23:00:00 7,4 4,2 29 16 80 43 WNW 1012,4 - 0,2
25.02.2020 22:00:00 7,6 4,4 45 24 88 48 WNW 1013,1 10 0,2
25.02.2020 21:00:00 8,7 4,3 32 18 75 41 WNW 1012,3 - 0,2
25.02.2020 20:00:00 7,6 5,6 31 17 77 42 WNW 1012,4 - 0,8
25.02.2020 19:00:00 8,8 5,4 32 17 64 35 WNW 1011,8 - 0,0
25.02.2020 18:00:00 9,0 5,9 34 18 74 40 WNW 1011,7 - 0,2
25.02.2020 17:00:00 11,1 6,0 27 15 68 37 W 1011,6 - 0,0
25.02.2020 16:00:00 10,6 6,0 26 14 62 34 W 1011,9 - 0,0
25.02.2020 15:00:00 11,8 5,9 28 15 63 34 WNW 1012,2 - 0,2
25.02.2020 14:00:00 12,5 6,3 23 12 55 30 W 1012,7 - 0,0
25.02.2020 13:00:00 11,1 6,0 21 11 53 29 W 1013,5 10 0,0
25.02.2020 12:00:00 11,9 6,4 20 11 53 28 W 1013,6 - 0,0
25.02.2020 11:00:00 9,8 6,7 25 14 52 28 WNW 1014,0 - 0,0
25.02.2020 10:00:00 10,0 6,3 22 12 41 22 WNW 1013,9 10 0,0
25.02.2020 09:00:00 9,4 8,5 15 8 35 19 WNW 1014,1 - 0,0
25.02.2020 08:00:00 9,4 8,3 22 12 40 22 WNW 1014,0 - 0,0
25.02.2020 07:00:00 10,1 9,6 14 7 35 19 WNW 1014,3 10 0,0
25.02.2020 06:00:00 10,1 9,8 18 10 42 23 WNW 1013,9 - 0,0
25.02.2020 05:00:00 11,1 10,8 18 10 38 21 W 1013,7 - 0,4
25.02.2020 04:00:00 11,0 10,7 18 10 42 23 WNW 1014,0 6 0,0
25.02.2020 03:00:00 11,1 10,8 18 10 51 27 W 1014,5 - 1,2
25.02.2020 02:00:00 11,1 10,8 29 16 51 28 WSW 1014,8 - 0,8
25.02.2020 01:00:00 11,0 10,7 22 12 49 27 WSW 1015,7 6 0,2
25.02.2020 00:00:00 10,8 10,5 25 13 54 29 WSW 1016,7 - 0,4
24.02.2020 23:00:00 10,7 10,2 26 14 51 28 WSW 1017,2 - 0,0
24.02.2020 22:00:00 10,6 10,0 21 11 46 25 WSW 1017,9 6 0,0
24.02.2020 21:00:00 10,6 9,8 19 10 42 23 WSW 1018,5 - 0,0
24.02.2020 20:00:00 10,8 8,9 19 11 45 25 W 1019,1 - 0,0
24.02.2020 19:00:00 10,4 8,7 20 11 40 22 WSW 1019,5 15 0,0
24.02.2020 18:00:00 10,4 9,2 17 9 38 21 W 1019,8 - 0,0
24.02.2020 17:00:00 10,4 9,6 21 11 46 25 W 1020,4 - 0,2
24.02.2020 16:00:00 10,7 9,6 22 12 49 26 WSW 1021,1 5 0,0
24.02.2020 15:00:00 10,8 9,4 22 12 47 25 WSW 1021,7 - 0,0
24.02.2020 14:00:00 10,5 9,1 19 11 51 28 WSW 1022,6 - 0,0
24.02.2020 13:00:00 10,6 9,5 26 14 49 26 SW 1023,4 7 0,0
24.02.2020 12:00:00 10,8 10,3 15 8 44 24 WSW 1024,5 - 0,0
24.02.2020 11:00:00 10,8 10,5 22 12 44 24 SW 1025,0 - 0,0
24.02.2020 10:00:00 10,4 10,1 19 10 42 23 SW 1025,3 4,0 0,0
24.02.2020 09:00:00 10,3 10,0 14 8 39 21 WSW 1025,5 - 0,0
24.02.2020 08:00:00 10,0 9,7 16 9 32 17 SW 1025,9 - 0,2
24.02.2020 07:00:00 10,0 9,7 13 7 33 18 WSW 1026,6 6 0,0
24.02.2020 06:00:00 10,1 9,8 14 7 32 17 WSW 1027,1 - 0,2
24.02.2020 05:00:00 10,1 9,8 16 9 36 19 WSW 1027,7 - 0,0
24.02.2020 04:00:00 10,4 10,1 12 7 30 16 WSW 1028,3 - 0,0
24.02.2020 03:00:00 10,7 10,4 12 7 31 17 WSW 1029,1 - 0,2
24.02.2020 02:00:00 10,9 10,6 13 7 33 18 WSW 1029,8 - 0,0
24.02.2020 01:00:00 11,0 10,7 15 8 30 16 WSW 1030,2 - 0,2
24.02.2020 00:00:00 11,0 10,5 12 6 27 14 WSW 1030,5 - 0,0
23.02.2020 23:00:00 10,9 10,4 10 5 27 14 WSW 1030,8 - 0,0
23.02.2020 22:00:00 11,1 10,6 11 6 27 15 WSW 1031,1 6 0,0
23.02.2020 21:00:00 11,1 10,6 11 6 29 16 WSW 1031,1 - 0,0
23.02.2020 20:00:00 11,2 10,6 15 8 32 17 WSW 1031,2 - 0,0
23.02.2020 19:00:00 11,3 10,5 13 7 33 18 W 1030,7 - 0,0
23.02.2020 18:00:00 11,5 10,6 13 7 38 21 W 1030,5 - 0,0
23.02.2020 17:00:00 12,0 10,4 16 9 37 20 W 1030,6 - 0,0
23.02.2020 16:00:00 11,8 11,0 16 9 42 23 W 1030,6 - 0,0
23.02.2020 15:00:00 11,7 10,6 16 9 41 22 W 1030,7 - 0,0
23.02.2020 14:00:00 11,7 10,1 17 9 40 21 W 1031,1 - 0,0
23.02.2020 13:00:00 11,6 10,0 19 10 43 23 W 1031,7 8 0,0
23.02.2020 12:00:00 11,5 9,9 16 9 42 23 W 1031,6 - 0,0
23.02.2020 11:00:00 11,4 9,8 18 10 46 25 WSW 1031,3 - 0,0
23.02.2020 10:00:00 11,3 9,9 18 10 52 28 WSW 1030,9 15 0,0
23.02.2020 09:00:00 10,9 9,5 20 11 46 25 WSW 1030,7 - 0,0
23.02.2020 08:00:00 10,8 9,1 17 9 42 23 W 1030,5 - 0,0
23.02.2020 07:00:00 10,7 8,6 21 11 47 26 WSW 1030,5 20 0,0
23.02.2020 06:00:00 10,7 8,6 21 11 50 27 WSW 1030,4 - 0,0
23.02.2020 05:00:00 10,7 8,8 21 12 46 25 WSW 1030,7 - 0,0
23.02.2020 04:00:00 10,5 8,9 22 12 45 24 WSW 1031,1 - 0,0
23.02.2020 03:00:00 10,3 8,9 20 11 42 23 WSW 1031,6 - 0,0
23.02.2020 02:00:00 10,5 9,3 16 9 43 23 WSW 1032,2 - 0,0
23.02.2020 01:00:00 10,6 9,4 23 12 40 22 SW 1032,4 - 0,0
23.02.2020 00:00:00 10,7 9,1 13 7 32 17 WSW 1032,7 - 0,0
22.02.2020 23:00:00 10,7 8,8 11 6 27 15 WSW 1033,3 - 0,0
22.02.2020 22:00:00 10,9 8,8 10 6 26 14 WSW 1033,3 25 0,0
22.02.2020 21:00:00 10,9 8,6 11 6 27 15 WSW 1033,2 - 0,0
22.02.2020 20:00:00 11,0 8,4 11 6 27 15 WSW 1033,1 - 0,0

tt = Température de l'air
td = dewpoint
ff = Vitesse du vent
fx = gusts
dd = Direction du vent
ppp = reduced air pressure
vv = visibility
rr = Quantités de précipitations

stations d'obs. à proximité